User: anonymous   Login
Location: Bern�tre
(50.1974°N, 2.0915°E)
Time: 12:16:39
(UTC+00:00)
Language:

USA 234 - Orbit

View from above orbital plane
View from above orbital plane
View from above satellite
View from above satellite

Ground track
Ground track

The orbit data is extracted from the following two-line orbital elements,

1 38109U 12014A   21202.90610520 0.00000000  00000-0  00000-0 0    02
2 38109 122.9958 316.8959 0002002 270.9336  89.0664 13.41429216    00
Epoch (UTC): 21 July 2021 21:44:47
Eccentricity: 0.0002002
inclination: 122.9958°
perigee height: 1102 km
apogee height: 1105 km
right ascension of ascending node: 316.8959°
argument of perigee: 270.9336°
revolutions per day: 13.41429216
mean anomaly at epoch: 89.0664°
orbit number at epoch: 0

The dashed part of the orbit path shows where the satellite is in the earth's shadow,  

DLR